Regional Weather Roundup
Issued by NWS

Home | Current Version | Previous Version | Graphics & Text | Print | Product List | Glossary On
Versions: 1 2 3 4 5 6 7 8 9 10 11 12 13 14 15 16 17 18 19 20 21 22 23 24 25 26 27 28 29 30 31 32 33 34 35 36 37 38 39 40 41 42 43 44 45 46 47 48 49 50
000
ASUS45 KPSR 180800
RWRAZ

PRELIMINARY ARIZONA REGIONAL HOURLY WEATHER ROUNDUP
NATIONAL WEATHER SERVICE PHOENIX AZ
100 AM MST THU DEC 18 2014

NOTE: FAIR INDICATES FEW OR NO CLOUDS BELOW 12,000 FEET WITH NO
SIGNIFICANT WEATHER AND/OR OBSTRUCTIONS TO VISIBILITY.

AZZ001>003-036-180900-
NORTHWEST ARIZONA

CITY           SKY/WX    TMP DP  RH WIND       PRES   REMARKS
KINGMAN        CLOUDY    38  35  89 S7        30.10F WCI  33
$$

AZZ004>008-015-016-018-180900-
NORTH CENTRAL ARIZONA

CITY           SKY/WX    TMP DP  RH WIND       PRES   REMARKS
GRAND CANYON   CLOUDY    31  30  96 SW5       30.10F WCI  26
PRESCOTT       MOCLDY    34  30  85 S6        30.12S WCI  29
FLAGSTAFF      CLOUDY    30  28  92 CALM      30.09S
PAYSON         MIX PCPN  32  32 100 CALM      30.14F VSB<1/4
PAGE           CLOUDY    38  34  85 CALM      30.09F FOG
$$

AZZ009>014-017-180900-
NORTHEAST ARIZONA

CITY           SKY/WX    TMP DP  RH WIND       PRES   REMARKS
WINSLOW        NOT AVBL
SAINT JOHNS    MOCLDY    30  28  92 CALM      30.11F
WINDOW ROCK    MOCLDY    30  26  85 CALM      30.10F
SHOW LOW       CLEAR     28  27  93 SW5       30.13F WCI  23
$$

AZZ023-180900-
GREATER PHOENIX AREA

CITY           SKY/WX    TMP DP  RH WIND       PRES   REMARKS
PHOENIX        MOCLDY    53  49  86 E6        30.11S
LUKE AFB       CLEAR     46 N/A N/A N3        30.11F
DEER VALLEY    CLOUDY    49  44  83 E3        30.11F
SCOTTSDALE     MOCLDY    51  47  86 CALM      30.13S
$$

AZZ027-028-180900-
SOUTHWEST MARICOPA COUNTY AND PINAL COUNTY

CITY           SKY/WX    TMP DP  RH WIND       PRES   REMARKS
CASA GRANDE    CLEAR     46  45  93 CALM      30.12F
GILA BEND      FAIR      47  47  98 NW1       30.12F
$$

AZZ503-504-507>509-180900-
SOUTHEAST ARIZONA

CITY           SKY/WX    TMP DP  RH WIND       PRES   REMARKS
TUCSON         MOCLDY    47  45  93 SE3       30.14F
DAVIS-MONTHAN  MOCLDY    46  46 100 SE5       30.11F
NOGALES        CLOUDY    47  42  83 CALM      30.13S
SIERRA VISTA   CLOUDY    43  43 100 S3        30.14F FOG
SAFFORD        CLOUDY    45  43  93 CALM      30.14F
$$

AZZ020-021-025-026-031-180900-
SOUTHWEST ARIZONA

CITY           SKY/WX    TMP DP  RH WIND       PRES   REMARKS
YUMA           NOT AVBL
$$

CAZ031-033-041-043-047-048-061-180900-
SOUTHERN CALIFORNIA

CITY           SKY/WX    TMP DP  RH WIND       PRES   REMARKS
DOWNTOWN L.A.  CLEAR     51  45  79 CALM      30.11S
L.A. AIRPORT   PTCLDY    53  46  77 E5        30.11S
SAN DIEGO      PTCLDY    57  45  64 CALM      30.14F
BURBANK        CLEAR     48  43  82 CALM      30.10F
ONTARIO        MOCLDY    52  43  71 NE5       30.11F
RIVERSIDE      PTCLDY    50  45  83 NE5       30.12S
PALM SPRINGS   MOCLDY    54  49  83 SW5       30.12F
EL CENTRO NAS  MOCLDY    50  49  96 NW3       30.10S FOG
IMPERIAL       CLOUDY    53  49  86 W5        30.09F
BLYTHE         CLOUDY    52  50  93 N3        30.10S
$$

NVZ020-UTZ003-180900-
SOUTHERN NEVADA-UTAH

CITY           SKY/WX    TMP DP  RH WIND       PRES   REMARKS
LAS VEGAS      NOT AVBL
SALT LAKE CITY PTCLDY    34  31  88 SE5       30.06F WCI  30
$$

NMZ009-TXZ055-180900-
NEW MEXICO-WEST TEXAS

CITY           SKY/WX    TMP DP  RH WIND       PRES   REMARKS
ALBUQUERQUE    PTCLDY    33  30  88 CALM      30.11S
EL PASO        PTCLDY    41  33  73 E3        30.12F
$$


........................KEY........................
SKY/WX - SKY CONDITION/WEATHER
TMP    - TEMPERATURE IN FAHRENHEIT
DP     - DEW POINT IN FAHRENHEIT
RH     - RELATIVE HUMIDITY IN PERCENT
WIND   - DIRECTION AND SPEED IN MILES PER HOUR (MPH)
VRB    - VARIABLE WIND DIRECTION
PRES   - MEAN SEA LEVEL PRESSURE IN INCHES OF MERCURY
         F - FALLING PRESSURE   R - RISING PRESSURE
         S - STEADY PRESSURE
VSB    - VISIBILITY IN MILES
HX     - HEAT INDEX IN FAHRENHEIT
WCI    - WIND CHILL INDEX IN FAHRENHEIT
TC     - TEMPERATURE IN CELSIUS WHICH IS ALSO KNOWN AS
         TEMPERATURE IN CENTIGRADE
AFB    - AIR FORCE BASE
         LUKE AFB IS LUKE AIR FORCE BASE
         DAVIS-MONTHAN IS DAVIS-MONTHAN AIR FORCE BASE
NAS    - NAVAL AIR STATION
         EL CENTRO NAS IS EL CENTRO NAVAL AIR STATION
N/A    - NOT AVAILABLE


USA.gov is the U.S. government's official web portal to all federal, state and local government web resources and services.